When you browse on this site, cookies collect data to enhance your experience and personalize the content and advertising you see.
Visit our Privacy Policy to learn more. By continuing to use the site, you agree to this use of cookies and data.
  • en France
  • Liste des pays
  • À 7 jours
  • Température de l'eau
  • Carte satellitaire
  • Carte météo
  • Widgets météo
  • user-avatar
    Se connecter

    Météo par heure à Caen

    Ce jour, 23 Janvier, Mercredi

    Heure Température Précipitation Vent Pression Humidité
    00:00 +3°C° 0 mm 4 m/s 746 mmHg 83%
    01:00 +3°C° 0.2 mm 4 m/s 746 mmHg 83%
    02:00 +1°C° 0.2 mm 4 m/s 746 mmHg 83%
    03:00 +1°C° 0.2 mm 4 m/s 746 mmHg 83%
    04:00 +1°C° 0.3 mm 4 m/s 746 mmHg 83%
    05:00 +1°C° 0.3 mm 4 m/s 746 mmHg 83%
    06:00 +1°C° 0.3 mm 4 m/s 746 mmHg 83%
    07:00 +1°C° 0.3 mm 5 m/s 747 mmHg 82%
    08:00 +1°C° 0.3 mm 5 m/s 747 mmHg 82%
    09:00 +1°C° 0.3 mm 6 m/s 747 mmHg 81%
    10:00 +2°C° 0.2 mm 6 m/s 748 mmHg 80%
    11:00 +2°C° 0.2 mm 7 m/s 748 mmHg 78%
    12:00 +2°C° 0.2 mm 8 m/s 749 mmHg 76%
    13:00 +3°C° 0.1 mm 7 m/s 749 mmHg 76%
    14:00 +3°C° 0.1 mm 7 m/s 750 mmHg 76%
    15:00 +2°C° 0.1 mm 7 m/s 750 mmHg 77%
    16:00 +2°C° 0 mm 6 m/s 751 mmHg 78%
    17:00 +1°C° 0 mm 6 m/s 751 mmHg 79%
    18:00 +1°C° 0 mm 5 m/s 752 mmHg 80%
    19:00 +1°C° 0 mm 5 m/s 753 mmHg 80%
    20:00 0°C° 0 mm 4 m/s 753 mmHg 81%
    21:00 +1°C° 0 mm 3 m/s 754 mmHg 82%
    22:00 +1°C° 0 mm 3 m/s 755 mmHg 81%
    23:00 +1°C° 0 mm 3 m/s 755 mmHg 81%

    Demain, 24 Janvier, Jeudi

    Heure Température Précipitation Vent Pression Humidité
    00:00 +2°C° 0 mm 2 m/s 755 mmHg 80%
    01:00 +2°C° 0 mm 2 m/s 756 mmHg 79%
    02:00 +2°C° 0 mm 2 m/s 756 mmHg 78%
    03:00 +1°C° 0 mm 2 m/s 756 mmHg 77%
    04:00 +1°C° 0 mm 2 m/s 756 mmHg 77%
    05:00 +1°C° 0 mm 2 m/s 757 mmHg 76%
    06:00 +1°C° 0 mm 2 m/s 757 mmHg 75%
    07:00 +1°C° 0 mm 2 m/s 757 mmHg 75%
    08:00 +2°C° 0 mm 2 m/s 758 mmHg 75%
    09:00 +2°C° 0 mm 2 m/s 758 mmHg 75%
    10:00 +3°C° 0 mm 2 m/s 758 mmHg 73%
    11:00 +5°C° 0 mm 2 m/s 758 mmHg 71%
    12:00 +5°C° 0 mm 3 m/s 759 mmHg 69%
    13:00 +5°C° 0 mm 3 m/s 758 mmHg 72%
    14:00 +5°C° 0 mm 3 m/s 758 mmHg 75%
    15:00 +7°C° 0 mm 3 m/s 758 mmHg 78%
    16:00 +5°C° 0.1 mm 3 m/s 758 mmHg 82%
    17:00 +5°C° 0.1 mm 4 m/s 758 mmHg 85%
    18:00 +4°C° 0.1 mm 4 m/s 758 mmHg 89%
    19:00 +5°C° 0.5 mm 4 m/s 758 mmHg 91%
    20:00 +6°C° 0.5 mm 4 m/s 758 mmHg 93%
    21:00 +7°C° 0.5 mm 5 m/s 759 mmHg 94%
    22:00 +7°C° 0.1 mm 4 m/s 758 mmHg 94%
    23:00 +7°C° 0.1 mm 3 m/s 758 mmHg 94%

    Après-demain, 25 Janvier, Vendredi

    Heure Température Précipitation Vent Pression Humidité
    00:00 +7°C° 0.1 mm 3 m/s 758 mmHg 94%
    01:00 +7°C° 0.1 mm 3 m/s 758 mmHg 94%
    02:00 +7°C° 0.1 mm 2 m/s 759 mmHg 93%
    03:00 +7°C° 0.1 mm 2 m/s 759 mmHg 93%
    04:00 +7°C° 0.1 mm 2 m/s 759 mmHg 92%
    05:00 +7°C° 0.1 mm 2 m/s 759 mmHg 91%
    06:00 +6°C° 0.1 mm 2 m/s 760 mmHg 90%
    07:00 +6°C° 0 mm 2 m/s 760 mmHg 89%
    08:00 +6°C° 0 mm 2 m/s 761 mmHg 88%
    09:00 +7°C° 0 mm 1 m/s 761 mmHg 87%
    10:00 +7°C° 0 mm 1 m/s 762 mmHg 83%
    11:00 +8°C° 0 mm 1 m/s 762 mmHg 78%
    12:00 +8°C° 0 mm 0 m/s 762 mmHg 74%
    13:00 +9°C° 0 mm 1 m/s 762 mmHg 76%
    14:00 +9°C° 0 mm 1 m/s 762 mmHg 78%
    15:00 +9°C° 0 mm 2 m/s 762 mmHg 80%
    16:00 +8°C° 0 mm 2 m/s 762 mmHg 85%
    17:00 +8°C° 0 mm 2 m/s 763 mmHg 90%
    18:00 +8°C° 0 mm 2 m/s 763 mmHg 94%
    19:00 +8°C° 0 mm 2 m/s 763 mmHg 95%
    20:00 +8°C° 0 mm 2 m/s 763 mmHg 96%
    21:00 +8°C° 0 mm 2 m/s 763 mmHg 97%
    22:00 +8°C° 0 mm 2 m/s 763 mmHg 97%
    23:00 +7°C° 0 mm 3 m/s 763 mmHg 96%

    26 Janvier, Samedi

    Heure Température Précipitation Vent Pression Humidité
    00:00 +7°C° 0 mm 3 m/s 763 mmHg 96%
    01:00 +7°C° 0 mm 3 m/s 763 mmHg 96%
    02:00 +7°C° 0 mm 3 m/s 762 mmHg 95%
    03:00 +7°C° 0 mm 3 m/s 762 mmHg 95%
    04:00 +6°C° 0 mm 4 m/s 762 mmHg 95%
    05:00 +6°C° 0 mm 4 m/s 761 mmHg 94%
    06:00 +6°C° 0 mm 5 m/s 761 mmHg 93%
    07:00 +6°C° 0 mm 5 m/s 760 mmHg 94%
    08:00 +7°C° 0 mm 5 m/s 760 mmHg 94%
    09:00 +8°C° 0 mm 6 m/s 760 mmHg 94%
    10:00 +8°C° 0.1 mm 6 m/s 759 mmHg 92%
    11:00 +9°C° 0.1 mm 7 m/s 758 mmHg 91%
    12:00 +9°C° 0.1 mm 7 m/s 758 mmHg 90%
    13:00 +9°C° 0.2 mm 8 m/s 756 mmHg 88%
    14:00 +8°C° 0.2 mm 9 m/s 755 mmHg 86%
    15:00 +8°C° 0.2 mm 10 m/s 754 mmHg 84%
    16:00 +8°C° 0.7 mm 10 m/s 754 mmHg 85%
    17:00 +8°C° 0.7 mm 9 m/s 754 mmHg 85%
    18:00 +7°C° 0.7 mm 9 m/s 754 mmHg 86%
    19:00 +6°C° 0.1 mm 9 m/s 754 mmHg 81%
    20:00 +5°C° 0.1 mm 8 m/s 755 mmHg 76%
    21:00 +4°C° 0.1 mm 8 m/s 756 mmHg 71%
    22:00 +4°C° 0 mm 8 m/s 756 mmHg 71%
    23:00 +2°C° 0 mm 8 m/s 757 mmHg 70%

    27 Janvier, Dimanche

    Heure Température Précipitation Vent Pression Humidité
    00:00 +2°C° 0 mm 8 m/s 757 mmHg 70%
    01:00 +2°C° 0.1 mm 8 m/s 757 mmHg 69%
    02:00 +1°C° 0.1 mm 8 m/s 757 mmHg 69%
    03:00 +1°C° 0.1 mm 8 m/s 757 mmHg 68%
    04:00 +1°C° 0.2 mm 8 m/s 757 mmHg 67%
    05:00 +1°C° 0.2 mm 9 m/s 757 mmHg 67%
    06:00 +1°C° 0.2 mm 9 m/s 757 mmHg 67%
    07:00 +1°C° 0.4 mm 9 m/s 757 mmHg 68%
    08:00 +1°C° 0.4 mm 9 m/s 758 mmHg 69%
    09:00 +1°C° 0.4 mm 9 m/s 758 mmHg 70%
    10:00 +2°C° 0.4 mm 9 m/s 758 mmHg 70%
    11:00 +2°C° 0.4 mm 9 m/s 758 mmHg 70%
    12:00 +2°C° 0.4 mm 10 m/s 758 mmHg 70%
    13:00 +2°C° 0.1 mm 9 m/s 758 mmHg 71%
    14:00 +2°C° 0.1 mm 9 m/s 758 mmHg 72%
    15:00 +2°C° 0.1 mm 9 m/s 758 mmHg 73%
    16:00 +2°C° 0.1 mm 8 m/s 758 mmHg 74%
    17:00 +2°C° 0.1 mm 8 m/s 758 mmHg 76%
    18:00 +3°C° 0.1 mm 7 m/s 759 mmHg 78%
    19:00 +3°C° 0.2 mm 7 m/s 759 mmHg 79%
    20:00 +3°C° 0.2 mm 6 m/s 759 mmHg 80%
    21:00 +3°C° 0.2 mm 6 m/s 759 mmHg 81%
    22:00 +2°C° 0.5 mm 6 m/s 759 mmHg 81%
    23:00 +2°C° 0.5 mm 6 m/s 759 mmHg 82%

    28 Janvier, Lundi

    Heure Température Précipitation Vent Pression Humidité
    00:00 +2°C° 0.5 mm 7 m/s 759 mmHg 82%
    01:00 0°C° 0.1 mm 7 m/s 759 mmHg 79%
    02:00 0°C° 0.1 mm 7 m/s 759 mmHg 75%
    03:00 -1°C° 0.1 mm 7 m/s 759 mmHg 72%
    04:00 -1°C° 0 mm 6 m/s 759 mmHg 72%
    05:00 -1°C° 0 mm 6 m/s 759 mmHg 71%
    06:00 -1°C° 0 mm 6 m/s 759 mmHg 71%
    07:00 -1°C° 0 mm 6 m/s 760 mmHg 71%
    08:00 0°C° 0 mm 5 m/s 760 mmHg 72%
    09:00 0°C° 0 mm 5 m/s 760 mmHg 73%
    10:00 +1°C° 0 mm 5 m/s 760 mmHg 70%
    11:00 +2°C° 0 mm 5 m/s 761 mmHg 68%
    12:00 +3°C° 0 mm 5 m/s 761 mmHg 65%
    13:00 +3°C° 0 mm 5 m/s 761 mmHg 67%
    14:00 +3°C° 0 mm 5 m/s 761 mmHg 68%
    15:00 +4°C° 0 mm 4 m/s 761 mmHg 69%
    16:00 +3°C° 0 mm 4 m/s 761 mmHg 71%
    17:00 +3°C° 0 mm 4 m/s 762 mmHg 73%
    18:00 +2°C° 0 mm 3 m/s 762 mmHg 75%
    19:00 +2°C° 0 mm 3 m/s 762 mmHg 75%
    20:00 +2°C° 0 mm 3 m/s 762 mmHg 76%
    21:00 +3°C° 0 mm 2 m/s 763 mmHg 76%
    22:00 +3°C° 0 mm 2 m/s 763 mmHg 77%
    23:00 +2°C° 0 mm 2 m/s 763 mmHg 77%
    Voir plus